FW5750 Weather Reports


time (UTC)temp
F
wind
direction
speed
knots
gust
knots
rain 1hr
in
rain 24hr
in
rain mn
in
humidity
%
barometer
mb
20260505152237 72 264 1.7 2.6 0.00 0.00 0.00 56 1015.6
20260505151731 71 220 0.9 4.3 0.00 0.00 0.00 55 1015.7
20260505151229 71 263 2.6 2.6 0.00 0.00 0.00 56 1015.6
20260505150726 71 281 3.5 4.3 0.00 0.00 0.00 55 1015.6
20260505150224 70 273 0.9 2.6 0.00 0.00 0.00 58 1015.5
20260505140154 68 268 0.0 2.6 0.00 0.00 0.00 57 1015.7
20260505130117 56 268 0.0 0.0 0.00 0.00 0.00 92 1015.8
20260505124607 53 269 0.0 0.0 0.00 0.00 0.00 99 1015.7
20260505124103 53 269 0.0 0.0 0.00 0.00 0.00 99 1015.7
20260505123559 52 268 0.0 0.0 0.00 0.00 0.00 99 1015.9
20260505123056 51 268 0.0 0.0 0.00 0.00 0.00 99 1015.7
20260505122553 51 268 0.0 0.0 0.00 0.00 0.00 99 1015.7
20260505122050 51 269 0.0 0.0 0.00 0.00 0.00 99 1015.4
20260505121546 50 269 0.0 0.0 0.00 0.00 0.00 99 1015.4
20260505121043 50 268 0.0 0.0 0.00 0.00 0.00 99 1015.3
20260505120540 49 268 0.0 0.0 0.00 0.00 0.00 99 1015.5
20260505120035 49 268 0.0 0.0 0.00 0.00 0.00 99 1015.4
20260505115524 48 268 0.0 0.0 0.00 0.00 0.00 99 1015.4
20260505115022 47 268 0.0 0.0 0.00 0.00 0.00 99 1015.3
20260505114519 47 268 0.0 0.0 0.00 0.00 0.00 99 1015.3
20260505114016 46 268 0.0 0.0 0.00 0.00 0.00 99 1015.3
20260505113512 46 268 0.0 0.0 0.00 0.00 0.00 99 1015.2
20260505113008 46 268 0.0 0.0 0.00 0.00 0.00 99 1015.1
20260505112504 45 268 0.0 0.0 0.00 0.00 0.00 99 1015.1
20260505112002 45 268 0.0 0.0 0.00 0.00 0.00 99 1015.2
20260505111456 45 268 0.0 0.0 0.00 0.00 0.00 99 1015.3
20260505110953 45 268 0.0 0.0 0.00 0.00 0.00 99 1014.9
20260505110449 44 268 0.0 0.0 0.00 0.00 0.00 99 1014.8
20260505101921 45 268 0.0 0.0 0.00 0.00 0.00 99 1014.6
20260505101420 45 268 0.0 0.0 0.00 0.00 0.00 99 1014.7
20260505100916 45 269 0.0 0.0 0.00 0.00 0.00 99 1014.6
20260505100413 45 268 0.0 0.0 0.00 0.00 0.00 99 1014.8
20260505095909 45 268 0.0 0.0 0.00 0.00 0.00 99 1014.9
20260505095406 45 268 0.0 0.0 0.00 0.00 0.00 99 1014.7
20260505094902 46 268 0.0 0.0 0.00 0.00 0.00 99 1014.6
20260505094400 46 269 0.0 0.0 0.00 0.00 0.00 99 1014.8
20260505093855 46 269 0.0 0.0 0.00 0.00 0.00 99 1014.9
20260505093353 46 268 0.0 0.0 0.00 0.00 0.00 99 1014.8
20260505092850 46 268 0.0 0.0 0.00 0.00 0.00 99 1014.8
20260505092348 46 268 0.0 0.0 0.00 0.00 0.00 99 1014.8
20260505091845 46 268 0.0 0.0 0.00 0.00 0.00 99 1014.8
20260505091343 46 268 0.0 0.0 0.00 0.00 0.00 99 1014.7
20260505090840 46 268 0.0 0.0 0.00 0.00 0.00 99 1014.7
20260505090339 46 268 0.0 0.0 0.00 0.00 0.00 99 1014.7
20260505085835 47 268 0.0 0.0 0.00 0.00 0.00 99 1014.7
20260505085333 47 268 0.0 0.0 0.00 0.00 0.00 99 1014.7
20260505084831 47 268 0.0 0.0 0.00 0.00 0.00 99 1014.3
20260505084329 47 268 0.0 0.0 0.00 0.00 0.00 99 1014.3
20260505083826 47 268 0.0 0.0 0.00 0.00 0.00 99 1014.1
20260505083324 47 268 0.0 0.0 0.00 0.00 0.00 99 1014.3
20260505082820 47 268 0.0 0.0 0.00 0.00 0.00 99 1014.3
20260505082316 47 268 0.0 0.0 0.00 0.00 0.00 99 1014.2
20260505081813 48 268 0.0 0.0 0.00 0.00 0.00 99 1014.1
20260505081310 48 268 0.0 0.0 0.00 0.00 0.00 99 1014.1
20260505080806 48 268 0.0 0.0 0.00 0.00 0.00 99 1014.0
20260505080302 48 268 0.0 0.0 0.00 0.00 0.00 99 1013.7
20260505075758 48 268 0.0 0.0 0.00 0.00 0.00 99 1013.7
20260505075255 48 268 0.0 0.0 0.00 0.00 0.00 99 1013.9
20260505074752 48 268 0.0 0.0 0.00 0.00 0.00 99 1013.9
20260505074249 48 268 0.0 0.0 0.00 0.00 0.00 99 1013.9
20260505073747 48 268 0.0 0.0 0.00 0.00 0.00 99 1014.0
20260505073245 48 268 0.0 0.0 0.00 0.00 0.00 99 1013.9
20260505072741 49 268 0.0 0.0 0.00 0.00 0.00 99 1013.9
20260505072237 49 268 0.0 0.0 0.00 0.00 0.00 99 1014.0
20260505071733 49 268 0.0 0.0 0.00 0.00 0.00 99 1013.9
20260505071230 49 268 0.0 0.0 0.00 0.00 0.00 98 1014.1
20260505070727 49 268 0.0 0.0 0.00 0.00 0.00 98 1014.0
20260505070223 50 268 0.0 0.0 0.00 0.00 0.00 98 1014.1
20260505065719 50 268 0.0 0.0 0.00 0.00 0.00 97 1014.1
20260505065212 50 268 0.0 0.0 0.00 0.00 0.00 97 1014.1
20260505064708 50 268 0.0 0.0 0.00 0.00 0.00 97 1014.2
20260505064206 50 268 0.0 0.0 0.00 0.00 0.00 97 1014.1
20260505063704 50 268 0.0 0.0 0.00 0.00 0.00 96 1014.1
20260505063159 51 268 0.0 0.0 0.00 0.00 0.00 96 1014.0
20260505062655 51 268 0.0 0.0 0.00 0.00 0.00 96 1014.1
20260505062154 51 268 0.0 0.0 0.00 0.00 0.00 95 1014.1
20260505061650 51 268 0.0 0.0 0.00 0.00 0.00 94 1014.2
20260505061149 51 268 0.0 0.0 0.00 0.00 0.00 93 1013.9
20260505060646 52 268 0.0 0.0 0.00 0.00 0.00 93 1014.0
20260505060142 52 268 0.0 0.0 0.00 0.00 0.00 92 1014.0
20260505055637 52 268 0.0 0.0 0.00 0.00 0.00 91 1014.0
20260505055134 53 268 0.0 0.0 0.00 0.00 0.00 91 1013.9
20260505054632 53 268 0.0 0.0 0.00 0.00 0.00 90 1014.0
20260505054130 53 268 0.0 0.0 0.00 0.00 0.00 87 1014.0
20260505053627 54 268 0.0 0.0 0.00 0.00 0.00 87 1014.1
20260505053123 54 268 0.0 0.0 0.00 0.00 0.00 86 1013.9
20260505052620 55 268 0.0 0.0 0.00 0.00 0.00 86 1014.0
20260505052118 55 268 0.0 0.0 0.00 0.00 0.00 84 1014.0
20260505051614 55 268 0.0 0.0 0.00 0.00 0.00 83 1013.9
20260505051113 56 268 0.0 0.0 0.00 0.00 0.00 80 1014.0
20260505050610 56 268 0.0 0.0 0.00 0.00 0.00 79 1013.9
20260505050108 57 268 0.0 0.0 0.00 0.00 0.00 78 1013.6
20260505041538 59 289 0.0 1.7 0.00 0.00 0.00 77 1013.6
20260505041036 59 291 0.0 0.0 0.00 0.00 0.00 74 1013.5
20260505040533 59 291 0.0 0.0 0.00 0.00 0.00 76 1013.7
20260505040030 59 285 0.0 1.7 0.00 0.00 0.00 75 1013.5
20260505035526 60 285 0.0 0.0 0.00 0.00 0.00 72 1013.5
20260505035022 60 285 0.0 0.0 0.00 0.00 0.00 72 1013.7
20260505034519 60 285 0.0 0.0 0.00 0.00 0.00 73 1013.7
20260505034016 61 280 0.0 0.0 0.00 0.00 0.00 69 1013.6
20260505033513 61 274 0.0 0.0 0.00 0.00 0.00 68 1013.4
20260505033011 62 289 0.0 0.0 0.00 0.00 0.00 67 1013.7
20260505032508 63 289 0.0 0.0 0.00 0.00 0.00 67 1013.6
20260505032005 63 274 0.0 0.0 0.00 0.00 0.00 63 1013.5
20260505031502 64 273 0.0 1.7 0.00 0.00 0.00 60 1013.8
20260505030958 64 269 0.0 0.0 0.00 0.00 0.00 57 1013.7
20260505030455 65 285 0.0 0.0 0.00 0.00 0.00 56 1013.8
20260505025950 65 271 0.9 2.6 0.00 0.00 0.00 56 1013.7
20260505025447 65 290 0.0 0.0 0.00 0.00 0.00 56 1013.9
20260505024946 65 267 0.0 1.7 0.00 0.00 0.00 57 1013.6
20260505024443 65 267 0.0 1.7 0.00 0.00 0.00 55 1013.8
20260505023940 66 276 0.0 0.0 0.00 0.00 0.00 55 1013.7
20260505023437 66 276 0.0 1.7 0.00 0.00 0.00 55 1013.8
20260505022934 67 288 0.0 1.7 0.00 0.00 0.00 52 1013.8
20260505022432 67 279 1.7 1.7 0.00 0.00 0.00 52 1013.8
20260505021929 67 277 2.6 4.3 0.00 0.00 0.00 54 1013.6
20260505021425 67 270 0.0 1.7 0.00 0.00 0.00 52 1013.6
20260505020921 68 264 0.0 1.7 0.00 0.00 0.00 51 1013.7
20260505020416 68 233 4.3 6.1 0.00 0.00 0.00 51 1013.8
20260505015913 69 284 0.0 1.7 0.00 0.00 0.00 51 1013.7
20260505015411 69 265 1.7 4.3 0.00 0.00 0.00 51 1013.5
20260505014908 69 312 0.9 6.1 0.00 0.00 0.00 52 1013.6
20260505014405 69 290 0.9 4.3 0.00 0.00 0.00 53 1013.7
20260505013902 69 267 1.7 2.6 0.00 0.00 0.00 54 1013.6
20260505013358 69 285 0.9 2.6 0.00 0.00 0.00 54 1013.4
20260505012857 69 273 0.0 1.7 0.00 0.00 0.00 55 1013.5
20260505012354 69 272 0.9 2.6 0.00 0.00 0.00 54 1013.5
20260505011850 69 250 0.0 2.6 0.00 0.00 0.00 54 1013.4
20260505011347 69 266 0.9 1.7 0.00 0.00 0.00 54 1013.4
20260505010843 69 277 0.9 4.3 0.00 0.00 0.00 54 1013.3
20260505010339 70 249 1.7 1.7 0.00 0.00 0.00 54 1013.3
20260505005836 70 259 1.7 2.6 0.00 0.00 0.00 54 1013.2
20260505005333 70 265 0.0 4.3 0.00 0.00 0.00 54 1013.4
20260505004830 70 300 0.9 2.6 0.00 0.00 0.00 54 1013.3
20260505004326 70 246 1.7 4.3 0.00 0.00 0.00 53 1013.3
20260505003824 70 278 0.0 2.6 0.00 0.00 0.00 53 1013.2
20260505003321 70 280 0.9 1.7 0.00 0.00 0.00 53 1013.0
20260505002817 70 277 0.0 2.6 0.00 0.00 0.00 54 1013.1
20260505002314 70 284 0.0 1.7 0.00 0.00 0.00 54 1013.4
20260505001812 71 257 0.9 2.6 0.00 0.00 0.00 54 1012.9
20260505001309 71 267 0.9 1.7 0.00 0.00 0.00 53 1013.1
20260505000806 72 272 1.7 6.1 0.00 0.00 0.00 52 1013.1
20260505000304 72 265 0.9 1.7 0.00 0.00 0.00 51 1012.8
20260504235800 72 261 4.3 6.1 0.00 0.00 0.00 51 1012.9
20260504235256 72 270 0.9 1.7 0.00 0.00 0.00 50 1013.0
20260504234754 73 227 0.9 2.6 0.00 0.00 0.00 50 1013.0
20260504234252 73 291 3.5 7.0 0.00 0.00 0.00 49 1012.8
20260504233748 73 270 3.5 6.1 0.00 0.00 0.00 49 1012.9
20260504233243 73 258 2.6 4.3 0.00 0.00 0.00 49 1012.9
20260504232740 73 265 1.7 2.6 0.00 0.00 0.00 49 1012.9
20260504232237 74 253 2.6 2.6 0.00 0.00 0.00 49 1012.8
20260504231734 74 265 0.0 2.6 0.00 0.00 0.00 50 1012.8
20260504231230 74 283 1.7 7.0 0.00 0.00 0.00 49 1012.9
20260504230727 74 285 2.6 6.1 0.00 0.00 0.00 50 1012.9
20260504230225 75 259 0.9 1.7 0.00 0.00 0.00 50 1012.8
20260504225724 75 258 1.7 2.6 0.00 0.00 0.00 49 1012.7
20260504225219 75 306 0.9 2.6 0.00 0.00 0.00 49 1012.6
20260504224717 75 289 1.7 1.7 0.00 0.00 0.00 49 1012.8
20260504224214 75 274 0.9 2.6 0.00 0.00 0.00 49 1012.7
20260504223710 75 273 0.9 2.6 0.00 0.00 0.00 49 1012.8
20260504223205 75 271 0.0 2.6 0.00 0.00 0.00 48 1012.9
20260504222703 75 272 0.0 1.7 0.00 0.00 0.00 48 1012.8
20260504222200 75 259 1.7 2.6 0.00 0.00 0.00 46 1012.8
20260504221657 75 285 0.9 4.3 0.00 0.00 0.00 46 1012.8
20260504221154 76 276 0.9 2.6 0.00 0.00 0.00 45 1012.8
20260504220650 76 294 1.7 4.3 0.00 0.00 0.00 44 1013.0
20260504220148 76 269 2.6 6.1 0.00 0.00 0.00 44 1012.9
20260504215644 76 266 1.7 4.3 0.00 0.00 0.00 44 1013.0
20260504215142 77 264 1.7 6.1 0.00 0.00 0.00 43 1012.9
20260504214637 77 286 1.7 7.0 0.00 0.00 0.00 42 1012.8
20260504214134 78 250 3.5 6.1 0.00 0.00 0.00 43 1013.0
20260504213630 78 278 1.7 4.3 0.00 0.00 0.00 42 1012.9
20260504213127 78 262 1.7 6.1 0.00 0.00 0.00 43 1012.9
20260504212624 79 313 3.5 6.1 0.00 0.00 0.00 42 1012.8
20260504212121 78 274 3.5 7.0 0.00 0.00 0.00 41 1012.9
20260504211618 79 232 0.9 9.6 0.00 0.00 0.00 41 1013.0
20260504211114 79 30 1.7 6.1 0.00 0.00 0.00 41 1013.1
20260504210612 79 261 2.6 4.3 0.00 0.00 0.00 42 1012.9
20260504210108 79 254 2.6 7.0 0.00 0.00 0.00 41 1013.0
20260504205606 80 243 5.2 7.0 0.00 0.00 0.00 40 1012.9
20260504205103 79 273 1.7 4.3 0.00 0.00 0.00 44 1013.1
20260504204601 79 253 2.6 7.0 0.00 0.00 0.00 42 1013.2
20260504204100 78 253 2.6 4.3 0.00 0.00 0.00 42 1013.2
20260504203558 78 258 3.5 6.1 0.00 0.00 0.00 42 1013.4
20260504203055 78 258 5.2 11.3 0.00 0.00 0.00 43 1013.5
20260504202550 79 270 6.1 7.0 0.00 0.00 0.00 43 1013.6
20260504202048 80 242 3.5 6.1 0.00 0.00 0.00 46 1013.2
20260504201545 79 307 0.9 1.7 0.00 0.00 0.00 44 1013.5
20260504201043 78 274 0.9 4.3 0.00 0.00 0.00 46 1013.7
20260504200538 78 285 0.9 2.6 0.00 0.00 0.00 46 1013.5
20260504200036 78 252 2.6 6.1 0.00 0.00 0.00 45 1013.8
20260504195532 78 223 4.3 7.0 0.00 0.00 0.00 45 1014.0
20260504195028 78 247 1.7 4.3 0.00 0.00 0.00 45 1013.8
20260504194525 78 262 1.7 7.0 0.00 0.00 0.00 46 1014.0
20260504194020 78 263 2.6 4.3 0.00 0.00 0.00 47 1013.8
20260504193517 77 281 0.0 4.3 0.00 0.00 0.00 49 1014.0
20260504193016 78 271 0.9 6.1 0.00 0.00 0.00 48 1013.9
20260504192514 78 255 2.6 4.3 0.00 0.00 0.00 47 1014.3
20260504192012 77 287 0.9 7.0 0.00 0.00 0.00 46 1014.4
20260504191509 77 272 0.9 4.3 0.00 0.00 0.00 47 1014.6
20260504191005 78 263 3.5 6.1 0.00 0.00 0.00 47 1014.6
20260504190501 77 278 1.7 2.6 0.00 0.00 0.00 46 1014.7
20260504185957 77 257 2.6 4.3 0.00 0.00 0.00 47 1014.9
20260504185455 76 283 2.6 4.3 0.00 0.00 0.00 47 1014.8
20260504184951 76 303 2.6 4.3 0.00 0.00 0.00 47 1014.8
20260504184447 76 250 1.7 4.3 0.00 0.00 0.00 47 1014.9
20260504183942 76 257 4.3 8.7 0.00 0.00 0.00 47 1015.2
20260504183440 76 267 4.3 7.0 0.00 0.00 0.00 47 1015.1
20260504182938 77 275 0.9 4.3 0.00 0.00 0.00 47 1015.1
20260504182434 77 269 1.7 2.6 0.00 0.00 0.00 48 1015.0
20260504181932 76 266 1.7 2.6 0.00 0.00 0.00 48 1015.4
20260504181429 76 280 2.6 4.3 0.00 0.00 0.00 47 1015.3
20260504180927 76 279 0.0 2.6 0.00 0.00 0.00 48 1015.5
20260504180426 76 284 0.9 2.6 0.00 0.00 0.00 49 1015.3
20260504175924 75 249 1.7 4.3 0.00 0.00 0.00 48 1015.5
20260504175420 75 241 3.5 4.3 0.00 0.00 0.00 46 1015.4
20260504174918 74 280 0.9 2.6 0.00 0.00 0.00 48 1015.7
20260504174415 74 267 2.6 6.1 0.00 0.00 0.00 51 1015.7
20260504173913 75 220 4.3 7.0 0.00 0.00 0.00 49 1015.6
20260504173409 74 268 0.9 2.6 0.00 0.00 0.00 53 1015.7
20260504172907 73 291 1.7 7.0 0.00 0.00 0.00 48 1015.7
20260504172403 73 238 3.5 4.3 0.00 0.00 0.00 47 1015.7
20260504171859 73 230 2.6 8.7 0.00 0.00 0.00 47 1015.9
20260504171356 73 265 0.0 2.6 0.00 0.00 0.00 49 1016.0
20260504170853 75 218 4.3 6.1 0.00 0.00 0.00 47 1016.0
20260504170349 74 270 2.6 4.3 0.00 0.00 0.00 48 1016.1
20260504160308 68 266 2.6 4.3 0.00 0.00 0.00 51 1017.1